Location: Berville
(49.1893°N, 2.0748°E)
Time: 17:52:45
(UTC+00:00)

Cosmos 2058 Rocket - Pass Details

Date: 08 February 2023
Orbit: 610 x 637 km, 82.5° (Epoch: 29 March)

Event Time Altitude Azimuth Distance (km) Brightness Sun altitude
Rises 17:56:16 0° 351° (N) 2,906 6.5 -9.7°
Reaches altitude 10° 17:58:30 10° 353° (N) 2,000 5.6 -10.0°
Maximum altitude 18:02:56 75° 79° (E) 652 3.0 -10.8°
Drops below altitude 10° 18:07:22 10° 165° (SSE) 2,001 5.6 -11.5°
Sets 18:09:36 0° 167° (SSE) 2,907 6.5 -11.8°
